Zurück zum Katalog

STARLINK-1522

AktivKommunikationVLEO
NORAD 46027·PAYLOAD·🇺🇸 United States

Gestartet Aug 7, 2020 von Cape Canaveral Space Force Station

Loading…

Nächste Überflüge (nächste 24 Stunden)

TLE

AktuellSource: CelesTrak SupGP

Epoche: Sep 14, 2026, 19:56 UTC

1 46027C 20055A   26257.83104167 -.00000033  00000+0 -16312-5 0  2575
2 46027  53.0607 348.6001 0001438 352.9526 291.6603 15.16925827    16

Verfolge STARLINK-1522 in Echtzeit mit AllMySat

Download on the App Store